Retour au catalogue

COSMOS 2508

ActifMilitairePO
NORAD 40921·PAYLOAD·🇷🇺 Russia

Lancé Sep 23, 2015 depuis Plesetsk Cosmodrome

Loading…

Prochains Passages (prochaines 24 heures)

TLE

FraisSource: Space-Track

Époque: Sep 14, 2026, 22:32 UTC

1 40921U 15050B   26257.93935463  .00000007  00000-0 -17994-4 0  9993
2 40921  82.4917  22.2449 0014382 184.4042 175.6914 12.42917672497995

Suivez COSMOS 2508 en temps réel avec AllMySat

Download on the App Store